www.pogodaiklimat.ru
ПОГОДА в Реддинге
Время
и дата
07:53 19.07
08:53 19.07
09:53 19.07
10:53 19.07
11:53 19.07
12:53 19.07
13:53 19.07
14:53 19.07
15:53 19.07
16:53 19.07
17:53 19.07
18:53 19.07
19:53 19.07
20:53 19.07
21:53 19.07
22:53 19.07
23:53 19.07
00:53 20.07
01:53 20.07
02:53 20.07
03:53 20.07
04:53 20.07
05:53 20.07
06:53 20.07
07:53 20.07
08:53 20.07
09:53 20.07
10:53 20.07
11:53 20.07
12:53 20.07
13:53 20.07
14:53 20.07
15:53 20.07
16:53 20.07
17:53 20.07
18:53 20.07
19:53 20.07
20:53 20.07
21:53 20.07
22:53 20.07
23:53 20.07
00:53 21.07
01:53 21.07
02:53 21.07
03:53 21.07
04:53 21.07
05:53 21.07
06:53 21.07
Ветер
(напр.,м/с)
Видим. Явления Облачность Т
(С)
Тd
(С)
f
(%)
Тe
(С)
Тes
(С)
Комфортность P
(гПа)
Po
(гПа)
Тmin
(С)
Tmax
(С)
R
(мм)
R24
(мм)
S
(см)
СЗ 3 16 км ясно +32.2 +9.4 24 +31 +34 жарко 1014.5 997.0
С 5
{9}
16 км ясно +35.0 +8.3 19 +33 +37 жарко 1014.1 996.6
СЗ 5
{9}
16 км ясно +36.1 +8.9 19 +34 +40 очень
жарко
1013.7 996.3 +20.6 +36.7
С 4 16 км ясно +37.8 +8.9 17 +36 +46 очень
жарко
1013.2 995.6
СЗ 4 16 км ясно +39.4 +7.2 14 +37 +49 очень
жарко
1012.5 995.0
С 4 16 км ясно +41.1 +3.9 10 +38 +51 опасность
солнечного
удара
1011.9 994.6
З 4 16 км ясно +42.2 +2.2 9 +39 +52 опасность
солнечного
удара
1011.3 994.0
нст 2 16 км ясно +42.8 -0.6 7 +39 +55 опасность
солнечного
удара
1010.6 993.3
нст 3 16 км ясно +43.3 -3.9 5 +39 +50 очень
жарко
1010.0 992.6 +36.1 +43.3
СЗ 2 16 км ясно +43.3 -1.7 6 +39 +48 очень
жарко
1009.5 992.0
З 2 16 км ясно +42.8 +1.1 8 +39 +44 очень
жарко
1009.4 992.0
штиль 0 16 км ясно +40.6 +5.6 12 +38 +40 очень
жарко
1009.4 992.0
СЗ 2 16 км ясно +37.2 +3.3 12 +34 +34 очень
жарко
1009.7 992.3
СЗ 2 16 км ясно +35.0 +5.6 16 +32 +32 жарко 1010.4 993.0
З 2 16 км ясно +30.6 +6.1 21 +29 +29 жарко 1010.6 993.3 +30.0 +43.9
С 3 16 км ясно +29.4 +6.1 23 +28 +28 жарко 1010.9 993.6
С 2 16 км ясно +28.9 +7.8 27 +28 +28 жарко 1011.0 993.6
С 2 16 км ясно +25.0 +8.3 35 +25 +25 комфорт 1010.7 993.3
штиль 0 16 км ясно +24.4 +7.8 35 +25 +25 комфорт 1010.8 993.3
СВ 2 16 км ясно +23.9 +8.3 37 +24 +24 комфорт 1010.5 993.3
С 3 16 км ясно +23.9 +8.3 37 +24 +24 комфорт 1010.3 993.0 +22.2 +32.2
штиль 0 16 км ясно +22.2 +7.8 40 +23 +23 комфорт 1010.5 993.0
штиль 0 16 км ясно +22.8 +8.9 41 +24 +24 комфорт 1010.5 993.0
штиль 0 16 км ясно +28.3 +9.4 31 +28 +30 жарко 1010.7 993.3
СЗ 3 16 км ясно +33.3 +9.4 23 +32 +35 жарко 1010.7 993.3
С 2 16 км ясно +36.1 +10.0 21 +35 +42 очень
жарко
1010.1 992.6
С 5 16 км ясно +38.9 +7.2 15 +37 +43 очень
жарко
1009.5 992.0 +21.7 +39.4
С 4 16 км ясно +41.7 +7.2 13 +39 +50 очень
жарко
1009.1 991.6
нст 2 16 км ясно +42.2 +6.1 11 +39 +58 опасность
солнечного
удара
1008.6 991.3
ЮЗ 4 16 км ясно +42.8 +7.2 12 +40 +54 опасность
солнечного
удара
1008.1 990.6
Ю 5 16 км ясно +42.8 +10.0 14 +41 +51 опасность
перегрева
1007.7 990.3
Ю 7 16 км ясно +42.2 +8.9 14 +40 +45 очень
жарко
1007.5 990.3
Ю 6 16 км ясно +41.7 +10.6 16 +40 +45 очень
жарко
1007.0 989.6 +38.9 +43.9
ЮВ 6 16 км ясно +40.6 +9.4 15 +39 +42 очень
жарко
1006.7 989.3
Ю 4 16 км ясно +40.0 +8.3 15 +38 +41 очень
жарко
1006.7 989.3
ЮЗ 2 16 км ясно +38.9 +7.8 15 +37 +38 очень
жарко
1007.4 990.0
ЮВ 4 16 км ясно +33.3 +12.2 28 +34 +34 очень
жарко
1008.0 990.6
Ю 3 16 км ясно +33.9 +13.9 30 +35 +35 очень
жарко
1008.5 991.3
С 2 16 км ясно +32.2 +13.3 32 +33 +33 жарко 1008.9 991.6 +31.7 +41.7
СВ 2 16 км 8/8 1140 м +30.0 +13.9 37 +32 +32 жарко 1008.9 991.6
штиль 0 16 км 8/8 1170 м +29.4 +12.8 36 +31 +31 жарко 1009.0 991.6
СЗ 2 16 км 8/8 1440 м +27.8 +12.8 40 +29 +29 жарко 1009.3 992.0
ЮВ 2 16 км ясно +27.2 +13.3 42 +29 +29 жарко 1009.8 992.3
С 2 16 км ясно +26.7 +13.3 44 +29 +29 жарко 1009.6 992.3
штиль 0 16 км ясно +24.4 +12.8 48 +26 +26 жарко 1009.7 992.3 +23.9 +32.2
штиль 0 16 км ясно +23.9 +12.8 50 +26 +26 жарко 1009.8 992.3
штиль 0 16 км ясно +23.9 +12.8 50 +26 +26 жарко 1010.2 992.6
В 2 8 км мгла, дым ясно +26.1 +13.3 45 +28 +29 жарко 1010.6 993.3
Местоположение метеостанции Redding Municipal Airport: широта 40.5146 долгота -122.2977 высота над уровнем моря 152 м.
В архиве по умолчанию представлена погода в Реддинге за последние 1-2 суток. Обновление информации о фактической погоде в базе происходит ежечасно! Архивные данные за месяц целиком и за предыдущие месяцы Вы можете получить, выбрав интересующий диапазон дат из раскрывающегося списка и нажав кнопку "Ввод!".
Внимание! Архив погоды МЕТАР в базе сайта по станциям, не включенным в климатический монитор, хранится не более 60 дней. Нет смысла пытаться выбрать более раннюю дату.
*Определитесь, кто Вы:
Внимание! Время в таблицах - местное (без учета летнего времени). Для получения всемирного времени необходимо вычесть поправку, которая равна -8 ч.
Смотрите также архив погоды в соседних городах и на ближайших метеорологических станциях:
Партнеры нашего сайта:      
Пояснения к столбцам:
  • Ветер - указаны скорость ветра в м/с - средняя за 10 мин, порывы в срок и между сроками (в фигурных скобках) и направление, откуда дует ветер: С - северный,
  • СВ - северо-восточный, В - восточный, ЮВ - юго-восточный, Ю - южный, ЮЗ - юго-западный, З - западный, СЗ - северо-западный.
  • Видимость - горизонтальная дальность видимости в метрах или километрах. При видимости от 1 до 10 км при отсутствии осадков обычно наблюдается дымка, при ухудшении видимости до 1 км и менее - туман. В сухую погоду видимость может ухудшаться дымом, пылью или мглою.
  • Явления - указаны атмосферные явления, наблюдавшиеся в срок или в последний час перед сроком; фигурными скобками обозначены явления, наблюдавшиеся между сроками (за 1-3 часа до срока); квадратными скобками обозначены град или гололедные отложения с указанием их диаметра в мм.
  • Облачность - указаны через наклонную черту общая и нижняя облачность в баллах и высота нижней границы облаков в метрах; квадратными скобками обозначены формы облаков: Ci - перистые, Cs - перисто-слоистые, Cc - перисто-кучевые, Ac - высококучевые, As - высокослоистые, Sc - слоисто-кучевые, Ns - слоисто-дождевые, Cu - кучевые, Cb - кучево-дождевые. Подробнее классификацию облаков см. в Атласе облаков (PDF).
  • T - Температура воздуха - температура, измеренная на высоте 2 м над землей.
  • Td - Температура точки росы - температура, при понижении до которой содержащийся в воздухе водяной пар достигнет насыщения.
  • f - Относительная влажность воздуха - влажноcть воздуха, измеренная на высоте 2 м над землей.
  • Te - Эффективная температура - температура, которую ощущает одетый по сезону человек в тени. Характеристика душности погоды. При расчете учитывается влияние влажности воздуха и скорости ветра на теплоощущения человека.
  • Tes - Эффективная температура на солнце - температура, которую ощущает человек, с поправкой на солнечный нагрев. Характеристика знойности погоды. Зависит от высоты солнца над горизонтом, облачности и скорости ветра. Ночью, в пасмурную погоду, а также при ветре 12 м/с и более поправка равна нулю.
  • P - Атмосферное давление - приведенное к уровню моря атмосферное давление.
  • Po - Атмосферное давление - измеренное на уровне метеостанции атмосферное давление.
  • Tmin - Минимальная температура - минимум температуры воздуха на высоте 2 м над землей.
  • Tmax - Максимальная температура - максимум температуры воздуха на высоте 2 м над землей.
  • R - Количество осадков - Количество выпавших осадков за период времени, мм. При наведении курсора мыши на число - период времени, за который выпало указанное количество осадков.
  • R24 - Количество осадков - Количество выпавших осадков за 24 часа, мм.
  • S - Снежный покров - Высота снежного покрова, см. При наведении курсора мыши на число - состояние снежного покрова и степень покрытия местности в баллах.